User: anonymous   Login
Location: Veyrier
(46.1830°N, 6.2000°E)
Time: 06:01:38
(UTC+01:00)
Language:

Iridium 98 - Orbit

View from above orbital plane
View from above orbital plane
View from above satellite
View from above satellite

Ground track
Ground track

The orbit data is extracted from the following two-line orbital elements,

1 27451U 02031B   15060.39389111  .00000552  00000-0  18990-3 0  9994
2 27451 086.3987 012.8436 0002382 083.5848 028.4333 14.34223191671071
Epoch (UTC): 01 March 2015 09:27:12
Eccentricity: 0.0002382
inclination: 86.3987°
perigee height: 776 km
apogee height: 779 km
right ascension of ascending node: 12.8436°
argument of perigee: 83.5848°
revolutions per day: 14.34223191
mean anomaly at epoch: 28.4333°
orbit number at epoch: 67107

The dashed part of the orbit path shows where the satellite is in the earth's shadow,  

DLR